Avalon, CA

4:46 AM PST on February 26, 2017 (GMT -0800)
Catalina

Weather History for KAVX - October, 2012

Change the Weather History Date:

Monday, October 15, 2012

  Actual Average Record
Temperature  
Mean Temperature 80 °F -  
Max Temperature 84 °F 69 °F 84 °F (2008)
Min Temperature 75 °F 55 °F 51 °F (2002)
Cooling Degree Days 14    
Growing Degree Days 30 (Base 50)    
Moisture  
Dew Point 42 °F    
Average Humidity 26    
Maximum Humidity 39    
Minimum Humidity 21    
Precipitation  
Precipitation 0.00 in - - ()
Sea Level Pressure  
Sea Level Pressure 29.87 in    
Wind  
Wind Speed 5 mph (WNW)    
Max Wind Speed 8 mph    
Max Gust Speed -    
Visibility 10 miles    
Events      
Averages and records for this station are not official NWS values.
T = Trace of Precipitation, MM = Missing Value Source: NWS Daily Summary

Daily Weather History Graph

Daily Weather History Graph

Search for Another Location

Airport or City:

Trip Planner

Search our weather history database for the weather conditions in past years. The results will help you decide how hot, cold, wet, or windy it might be!

Date:

Astronomy

Oct. 15, 2012 Rise Set
Actual Time 6:58 AM PDT 6:19 PM PDT
Civil Twilight 6:33 AM PDT 6:44 PM PDT
Nautical Twilight 6:04 AM PDT 7:13 PM PDT
Astronomical Twilight 5:36 AM PDT 7:41 PM PDT
Moon 7:11 AM PDT (10/15) 6:26 PM PDT (10/15)
Length of Visible Light 12h 10m
Length of Day
11h 20m
New Moon, 0% of the Moon is Illuminated
Oct 15
New Moon
Oct 21
First Quarter
Oct 29
Full
Nov 6
Last Quarter
Nov 13
New

Hourly Weather History & Observations

Time (PDT) Temp. Heat Index Dew Point Humidity Pressure Visibility Wind Dir Wind Speed Gust Speed Precip Events Conditions
12:51 AM 78.1 °F - 37.0 °F 23% 29.91 in 10.0 mi NNW 6.9 mph - N/A   Clear
1:51 AM 80.1 °F - 37.0 °F 21% 29.90 in 10.0 mi NNW 8.1 mph - N/A   Clear
2:51 AM 79.0 °F - 37.0 °F 22% 29.89 in 10.0 mi North 5.8 mph - N/A   Clear
3:51 AM 79.0 °F - 37.0 °F 22% 29.87 in 10.0 mi NE 4.6 mph - N/A   Clear
4:51 AM 78.1 °F - 37.9 °F 24% 29.88 in 10.0 mi East 4.6 mph - N/A   Clear
5:51 AM 81.0 °F - 37.9 °F 21% 29.87 in 10.0 mi Calm Calm - N/A   Clear
6:51 AM 80.1 °F - 37.0 °F 21% 29.88 in 10.0 mi Calm Calm - N/A   Clear
7:51 AM 81.0 °F - 39.0 °F 22% 29.89 in 10.0 mi Calm Calm - N/A   Clear
8:51 AM 82.9 °F - 43.0 °F 24% 29.90 in 10.0 mi Calm Calm - N/A   Clear
9:51 AM 82.0 °F - 43.0 °F 25% 29.91 in 10.0 mi Calm Calm - N/A   Clear
10:51 AM 84.0 °F - 44.1 °F 25% 29.90 in 10.0 mi SSW 5.8 mph - N/A   Clear
11:51 AM 79.0 °F - 48.0 °F 34% 29.91 in 10.0 mi WSW 6.9 mph - N/A   Clear
12:51 PM 82.9 °F - 51.1 °F 33% 29.88 in 10.0 mi West 3.5 mph - N/A   Clear
1:51 PM 82.9 °F 82.1 °F 55.9 °F 39% 29.85 in 10.0 mi West 5.8 mph - N/A   Clear
2:51 PM 82.9 °F - 50.0 °F 32% 29.84 in 10.0 mi West 4.6 mph - N/A   Clear
3:51 PM 81.0 °F - 50.0 °F 34% 29.83 in 10.0 mi WSW 8.1 mph - N/A   Clear
4:51 PM 80.1 °F - 43.0 °F 27% 29.83 in 10.0 mi WSW 3.5 mph - N/A   Clear
5:51 PM 75.9 °F - 48.9 °F 38% 29.82 in 10.0 mi WSW 3.5 mph - N/A   Clear
6:51 PM 75.9 °F - 39.0 °F 26% 29.83 in 10.0 mi WNW 6.9 mph - N/A   Clear
7:51 PM 77.0 °F - 37.0 °F 24% 29.84 in 10.0 mi WNW 6.9 mph - N/A   Clear
8:51 PM 77.0 °F - 37.0 °F 24% 29.84 in 10.0 mi WNW 6.9 mph - N/A   Clear
9:51 PM 77.0 °F - 37.0 °F 24% 29.86 in 10.0 mi West 5.8 mph - N/A   Clear
10:51 PM 75.9 °F - 37.0 °F 24% 29.86 in 10.0 mi NW 6.9 mph - N/A   Clear
11:51 PM 75.9 °F - 37.0 °F 24% 29.85 in 10.0 mi North 5.8 mph - N/A   Clear